Miscellaneous Local Product
Issued by NWS North Platte, NE

Home | Current Version | Previous Version | Graphics & Text | Print | Product List | Glossary On
Versions: 1 2 3 4 5 6 7 8 9 10 11 12 13 14 15 16 17 18 19 20 21 22 23 24 25 26 27 28 29 30 31 32 33 34 35 36 37 38 39 40 41 42 43 44 45 46 47 48 49 50
000
AXUS43 KLBF 070510
MISLBF


WESTERN AND NORTH CENTRAL NEBRASKA HOURLY WEATHER ROUNDUP
NATIONAL WEATHER SERVICE NORTH PLATTE NE
1100 PM CST TUE DEC 06 2016

NOTE: "FAIR" INDICATES FEW OR NO CLOUDS BELOW 12,000 FEET WITH NO
SIGNIFICANT WEATHER AND/OR OBSTRUCTIONS TO VISIBILITY.

NOTE: STATIONS NOT REPORTING VARIABLES SUCH AS SKY/WEATHER OR
PRESSURE ARE PROVIDED BY RAWS AND APRS NETWORKS AND ARE NOT UNDER
NATIONAL WEATHER SERVICE QUALITY CONTROL.

...OBSERVATIONS IN AND NEAR THE EASTERN PANHANDLE OF NEBRASKA...

CITY           SKY/WX    TMP DP  RH WIND       PRES   REMARKS
PINE RIDGE     CLOUDY     3  -1  83 CALM      30.09R
CHADRON        CLOUDY    10   1  67 W7        30.11R WCI  -1
ALLIANCE       CLOUDY    12   4  70 N5        30.03R WCI   4
SIDNEY         CLOUDY    19   5  54 E10       30.00S WCI   7
CRESCENT LAKE    N/A     15   3  59 N6          N/A  WCI   6
$$

...OBSERVATIONS IN NORTHERN NEBRASKA AND FAR SOUTHERN SOUTH DAKOTA...

CITY           SKY/WX    TMP DP  RH WIND       PRES   REMARKS
WINNER         FAIR      10   1  67 NW10      30.14R WCI  -4
VALENTINE      CLOUDY     8  -1  66 NW12      30.13R WCI  -7
THEDFORD       MOCLDY    13   4  66 NW12      30.11S WCI  -1
AINSWORTH      CLOUDY    10   2  70 W8        30.12S WCI  -2
O`NEILL        CLEAR     13   5  70 NW13      30.13R WCI  -1
ORD            CLOUDY    17   4  56 NW14      30.14R WCI   3
BROKEN BOW     CLOUDY    19   7  59 N14       30.11R WCI   6
VALENTINE NWR    N/A      9  -1  62 NW10G17     N/A  WCI  -5
BUTTE            N/A     10   3  74 NW13G20     N/A  WCI  -5
HALSEY           N/A     13   1  57 NW8G16      N/A  WCI   2
CHAMBERS         N/A     12  -1  55 N3          N/A
EWING            N/A     14   6  70 NW13G20     N/A  WCI   0
$$

...OBSERVATIONS IN SOUTHWEST NEBRASKA AND FAR NORTHEAST COLORADO...

CITY           SKY/WX    TMP DP  RH WIND       PRES   REMARKS
WRAY           CLOUDY    27   5  39 MISG      30.01R
HOLYOKE        LGT SNOW  25  19  80 SE7       30.03S WCI  17
IMPERIAL       LGT SNOW  24  18  77 NE7       30.06R WCI  16
OGALLALA       CLOUDY    24   7  48 NE6       30.06R WCI  16
NORTH PLATTE   CLOUDY    20   5  52 NE7       30.11R WCI  11
MCCOOK         CLOUDY    26   9  48 NE5       30.08R WCI  20
LEXINGTON      CLOUDY    24   7  48 N7        30.12R WCI  16
STAPLETON        N/A     15   4  62 CALM        N/A
GOTHENBURG       N/A     22   6  50 N5          N/A  WCI  16
CALLAWAY         N/A     18   6  58 N7          N/A  WCI   9
$$

...OBSERVATIONS IN CENTRAL LINCOLN COUNTY AREA...

CITY           SKY/WX    TMP DP  RH WIND       PRES   REMARKS
N.P. AIRPORT   CLOUDY    20   5  52 NE7       30.11R WCI  11
N.P. DOWNTOWN    N/A     20   6  54 NE3         N/A
N.P. SOUTHEAST   N/A     20   5  52 NE3         N/A
N.P. HILLCREST   N/A     19   6  58 NE10        N/A  WCI   7
$$

...SOME OBSERVATIONS FROM AROUND THE REGION...

CITY           SKY/WX    TMP DP  RH WIND       PRES   REMARKS
LARAMIE        CLOUDY    11   3  70 SE18      29.75R WCI  -7
CHEYENNE       LGT SNOW  12   8  84 E8        29.83F FOG     WCI   0
DENVER         LGT SNOW  17  11  77 SE12      29.84S WCI   4
AKRON          CLOUDY    19  13  77 NE12      29.94R WCI   7
SCOTTSBLUFF    CLOUDY    17   3  54 CALM      30.03R
RAPID CITY     CLOUDY     5  -3  69 NW17      30.10R WCI -14
BISMARCK       MIX PCPN   6   4  91 W20G28    30.07R WCI -14
PIERRE         CLOUDY    10   3  73 NW23G29   30.10R WCI -10
SIOUX FALLS    CLEAR     12   5  73 W22G29    30.04R WCI  -7
OMAHA          PTCLDY    22  10  60 NW9       30.15R WCI  12
GRAND ISLAND   MOCLDY    22   9  57 NW9       30.14R WCI  12
KANSAS CITY    MOCLDY    28  15  58 N7        30.13F WCI  21
WICHITA        CLOUDY    35  21  56 CALM      30.13R
OKLAHOMA CITY  PTCLDY    35  19  52 NE6       30.09R WCI  30
DALLAS         CLOUDY    46  35  65 N7        30.07R
AMARILLO       CLOUDY    25  15  66 SE14      29.97F WCI  13
DODGE CITY     PTCLDY    24  13  62 E6        30.05F WCI  17
HAYS           MOCLDY    28  19  69 NE5       30.10S WCI  23
GOODLAND       CLOUDY    23   4  44 E6        29.98S WCI  16
$$




USA.gov is the U.S. government's official web portal to all federal, state and local government web resources and services.